Location: Tel Aviv
(32.0670°N, 34.7670°E)
Time: 21:17:59
(UTC+02:00)

CUTE-I - Pass Details

Date: 24 December 2025
Orbit: 805 x 817 km, 98.7° (Epoch: 21 January)

Event Time Altitude Azimuth Distance (km) Brightness Sun altitude
Rises 05:15:34 0° 25° (NNE) 3,347 ? -17.2°
Reaches altitude 10° 05:18:10 10° 35° (NE) 2,412 ? -16.6°
Maximum altitude 05:22:55 32° 98° (E) 1,364 ? -15.7°
Drops below altitude 10° 05:27:38 10° 161° (SSE) 2,400 ? -14.7°
Sets 05:30:12 0° 171° (S) 3,328 ? -14.2°
